Change the Weather History Date:

Monday, October 1, 2012

  Actual Average (KAMG) Record (KAMG)
Temperature  
Mean Temperature 80 °F 73 °F  
Max Temperature 91 °F 83 °F 93 °F (1986)
Min Temperature 69 °F 63 °F 42 °F (1967)
Degree Days  
Heating Degree Days 0 0  
Month to date heating degree days 0  
Since 1 July heating degree days 2  
Cooling Degree Days 15 8  
Month to date cooling degree days 8  
Year to date cooling degree days 2278  
Growing Degree Days 30 (Base 50)    
Moisture  
Dew Point 72 °F    
Average Humidity 81    
Maximum Humidity 100    
Minimum Humidity 52    
Precipitation  
Precipitation 0.00 in 0.11 in 0.58 in (1989)
Month to date precipitation 0.11  
Year to date precipitation 37.96  
Snow  
Snow 0.00 in 0.00 in 0.00 in ()
Month to date snowfall 0.0  
Since 1 July snowfall 0.0  
Since 1 September snowfall 0.0  
Snow Depth -    
Sea Level Pressure  
Sea Level Pressure 29.75 in    
Wind  
Wind Speed 5 mph (SSE)    
Max Wind Speed 14 mph    
Max Gust Speed 23 mph    
Visibility 8 miles    
Events      
T = Trace of Precipitation, MM = Missing Value Source: NWS Daily Summary

Daily Weather History Graph

Daily Weather History Graph

Search for Another Location

Airport or City:

Trip Planner

Search our weather history database for the weather conditions in past years. The results will help you decide how hot, cold, wet, or windy it might be!

Date:

Astronomy

Oct. 01, 2012 Rise Set
Actual Time 7:23 AM EDT 7:14 PM EDT
Civil Twilight 6:59 AM EDT 7:38 PM EDT
Nautical Twilight 6:31 AM EDT 8:06 PM EDT
Astronomical Twilight 6:03 AM EDT 8:34 PM EDT
Moon 8:00 PM EDT (10/1) 8:42 AM EDT (10/1)
Length of Visible Light 12h 38m
Length of Day
11h 50m
Full, 98% of the Moon is Illuminated
Oct 1
Full
Oct 8
Last Quarter
Oct 15
New
Oct 21
First Quarter
Oct 29
Full

Hourly Weather History & Observations

Time (EDT) Temp. Heat Index Dew Point Humidity Pressure Visibility Wind Dir Wind Speed Gust Speed Precip Events Conditions
12:15 AM 71.6 °F - 71.6 °F 100% 29.81 in 2.5 mi SE 3.5 mph - N/A   Overcast
12:35 AM 71.6 °F - 71.6 °F 100% 29.81 in 4.0 mi SE 3.5 mph - N/A   Overcast
12:55 AM 71.6 °F - 71.6 °F 100% 29.80 in 2.5 mi SSE 4.6 mph - N/A   Overcast
1:15 AM 71.6 °F - 71.6 °F 100% 29.80 in 4.0 mi SSE 3.5 mph - N/A   Overcast
1:55 AM 71.6 °F - 71.6 °F 100% 29.79 in 1.5 mi Calm Calm - N/A   Overcast
2:55 AM 71.6 °F - 71.6 °F 100% 29.78 in 1.8 mi Calm Calm - N/A   Overcast
3:15 AM 71.6 °F - 71.6 °F 100% 29.77 in 1.5 mi South 3.5 mph - N/A   Overcast
3:35 AM 71.6 °F - 69.8 °F 94% 29.77 in 2.5 mi South 5.8 mph - N/A   Overcast
3:55 AM 69.8 °F - 69.8 °F 100% 29.76 in 1.8 mi Calm Calm - N/A   Overcast
4:15 AM 69.8 °F - 69.8 °F 100% 29.76 in 1.2 mi Calm Calm - N/A   Overcast
4:35 AM 69.8 °F - 69.8 °F 100% 29.76 in 0.5 mi Calm Calm - N/A   Overcast
4:55 AM 69.8 °F - 69.8 °F 100% 29.76 in 0.2 mi Calm Calm - N/A   Overcast
5:15 AM 69.8 °F - 69.8 °F 100% 29.76 in 0.2 mi Calm Calm - N/A   Overcast
5:35 AM 69.8 °F - 69.8 °F 100% 29.76 in 0.2 mi Calm Calm - N/A   Overcast
5:55 AM 69.8 °F - 69.8 °F 100% 29.76 in 0.5 mi Calm Calm - N/A   Overcast
6:15 AM 69.8 °F - 69.8 °F 100% 29.76 in 1.5 mi Calm Calm - N/A   Mostly Cloudy
6:35 AM 69.8 °F - 69.8 °F 100% 29.76 in 0.8 mi ESE 3.5 mph - N/A   Overcast
6:55 AM 69.8 °F - 69.8 °F 100% 29.76 in 7.0 mi SE 3.5 mph - N/A   Scattered Clouds
7:15 AM 69.8 °F - 69.8 °F 100% 29.76 in 10.0 mi SSE 3.5 mph - N/A   Clear
7:35 AM 69.8 °F - 69.8 °F 100% 29.76 in 10.0 mi SSE 4.6 mph - N/A   Clear
7:55 AM 69.8 °F - 69.8 °F 100% 29.76 in 10.0 mi SE 3.5 mph - N/A   Clear
8:15 AM 71.6 °F - 71.6 °F 100% 29.77 in 10.0 mi SSE 3.5 mph - N/A   Clear
8:35 AM 71.6 °F - 71.6 °F 100% 29.77 in 10.0 mi SSE 3.5 mph - N/A   Clear
8:55 AM 73.4 °F - 73.4 °F 100% 29.77 in 10.0 mi SSE 4.6 mph - N/A   Clear
9:15 AM 75.2 °F - 71.6 °F 89% 29.78 in 10.0 mi South 8.1 mph - N/A   Clear
9:35 AM 78.8 °F - 73.4 °F 83% 29.77 in 10.0 mi South 6.9 mph - N/A   Clear
9:55 AM 78.8 °F - 73.4 °F 83% 29.78 in 10.0 mi South 6.9 mph - N/A   Clear
10:15 AM 80.6 °F 85.4 °F 73.4 °F 79% 29.78 in 10.0 mi South 8.1 mph - N/A   Clear
10:35 AM 82.4 °F 88.2 °F 73.4 °F 74% 29.78 in 10.0 mi South 8.1 mph - N/A   Scattered Clouds
10:55 AM 84.2 °F 90.9 °F 73.4 °F 70% 29.78 in 10.0 mi SSE 10.4 mph - N/A   Scattered Clouds
11:15 AM 84.2 °F 90.9 °F 73.4 °F 70% 29.78 in 10.0 mi South 10.4 mph - N/A   Clear
11:35 AM 84.2 °F 90.9 °F 73.4 °F 70% 29.78 in 10.0 mi South 9.2 mph - N/A   Scattered Clouds
11:55 AM 86.0 °F 93.4 °F 73.4 °F 66% 29.77 in 10.0 mi SSE 9.2 mph 16.1 mph N/A   Scattered Clouds
12:15 PM 86.0 °F 93.4 °F 73.4 °F 66% 29.77 in 10.0 mi South 13.8 mph 23.0 mph N/A   Scattered Clouds
12:35 PM 87.8 °F 95.6 °F 73.4 °F 62% 29.77 in 10.0 mi South 9.2 mph 23.0 mph N/A   Scattered Clouds
12:55 PM 87.8 °F 93.8 °F 71.6 °F 58% 29.76 in 10.0 mi South 10.4 mph - N/A   Mostly Cloudy
1:15 PM 87.8 °F 93.8 °F 71.6 °F 58% 29.75 in 10.0 mi South 12.7 mph 17.3 mph N/A   Mostly Cloudy
1:35 PM 87.8 °F 93.8 °F 71.6 °F 58% 29.74 in 10.0 mi South 10.4 mph 17.3 mph N/A   Scattered Clouds
1:55 PM 87.8 °F 95.6 °F 73.4 °F 62% - 10.0 mi SSE 8.1 mph 17.3 mph N/A   Mostly Cloudy
2:15 PM 89.6 °F 98.2 °F 73.4 °F 59% 29.73 in 10.0 mi SSW 11.5 mph - N/A   Scattered Clouds
2:35 PM 89.6 °F 98.2 °F 73.4 °F 59% 29.72 in 10.0 mi SSE 10.4 mph 16.1 mph N/A   Scattered Clouds
2:55 PM 87.8 °F 93.8 °F 71.6 °F 58% 29.72 in 10.0 mi South 9.2 mph 16.1 mph N/A   Scattered Clouds
3:15 PM 89.6 °F 96.2 °F 71.6 °F 55% 29.71 in 10.0 mi South 10.4 mph 16.1 mph N/A   Scattered Clouds
3:35 PM 89.6 °F 96.2 °F 71.6 °F 55% 29.70 in 10.0 mi South 11.5 mph - N/A   Scattered Clouds
3:55 PM 91.4 °F 98.4 °F 71.6 °F 52% 29.69 in 10.0 mi South 11.5 mph 18.4 mph N/A   Clear
4:15 PM 89.6 °F 96.2 °F 71.6 °F 55% 29.69 in 10.0 mi South 12.7 mph 17.3 mph N/A   Clear
4:35 PM 89.6 °F 96.2 °F 71.6 °F 55% 29.69 in 10.0 mi South 5.8 mph - N/A   Clear
4:55 PM 87.8 °F 93.8 °F 71.6 °F 58% 29.68 in 10.0 mi South 10.4 mph - N/A   Clear
5:15 PM 87.8 °F 93.8 °F 71.6 °F 58% 29.69 in 10.0 mi South 6.9 mph - N/A   Scattered Clouds
5:35 PM 87.8 °F 93.8 °F 71.6 °F 58% 29.69 in 10.0 mi South 9.2 mph - N/A   Scattered Clouds
5:55 PM 87.8 °F 95.6 °F 73.4 °F 62% 29.70 in 10.0 mi South 8.1 mph - N/A   Clear
6:15 PM 86.0 °F 93.4 °F 73.4 °F 66% 29.70 in 10.0 mi SSE 9.2 mph 16.1 mph N/A   Scattered Clouds
6:35 PM 84.2 °F 90.9 °F 73.4 °F 70% 29.70 in 10.0 mi SSE 11.5 mph 16.1 mph N/A   Clear
6:55 PM 84.2 °F 90.9 °F 73.4 °F 70% 29.70 in 10.0 mi SSE 8.1 mph - N/A   Clear
7:15 PM 82.4 °F 88.2 °F 73.4 °F 74% 29.71 in 10.0 mi SSE 5.8 mph - N/A   Scattered Clouds
7:35 PM 82.4 °F 88.2 °F 73.4 °F 74% 29.71 in 10.0 mi SSE 4.6 mph - N/A   Scattered Clouds
7:55 PM 80.6 °F 85.4 °F 73.4 °F 79% 29.71 in 10.0 mi SSE 8.1 mph - N/A   Scattered Clouds
8:15 PM 80.6 °F 85.4 °F 73.4 °F 79% 29.71 in 10.0 mi SE 8.1 mph - N/A   Mostly Cloudy
8:35 PM 80.6 °F 85.4 °F 73.4 °F 79% 29.72 in 10.0 mi SE 9.2 mph - N/A   Overcast
8:55 PM 80.6 °F 85.4 °F 73.4 °F 79% 29.73 in 10.0 mi SSE 8.1 mph - N/A   Scattered Clouds
9:15 PM 78.8 °F - 73.4 °F 83% 29.74 in 10.0 mi SSE 6.9 mph - N/A   Clear
9:35 PM 78.8 °F - 73.4 °F 83% 29.74 in 10.0 mi SSE 9.2 mph - N/A   Clear
9:55 PM 78.8 °F - 75.2 °F 89% 29.74 in 10.0 mi SSE 6.9 mph - N/A   Clear
10:15 PM 77.0 °F - 73.4 °F 89% 29.75 in 10.0 mi SSE 5.8 mph - N/A   Clear
10:35 PM 77.0 °F - 73.4 °F 89% 29.75 in 10.0 mi SSE 6.9 mph - N/A   Clear
10:55 PM 77.0 °F - 73.4 °F 89% 29.75 in 10.0 mi SSE 6.9 mph - N/A   Clear
11:15 PM 77.0 °F - 73.4 °F 89% 29.76 in 10.0 mi South 5.8 mph - N/A   Clear
11:35 PM 75.2 °F - 73.4 °F 94% 29.75 in 10.0 mi South 6.9 mph - N/A   Clear
11:55 PM 75.2 °F - 73.4 °F 94% 29.75 in 10.0 mi South 5.8 mph - N/A   Clear